Regional Weather Roundup
Issued by NWS Cleveland, OH

Home | Current Version | Previous Version | Graphics & Text | Print | Product List | Glossary On
Versions: 1 2 3 4 5 6 7 8 9 10 11 12 13 14 15 16 17 18 19 20 21 22 23 24 25 26 27 28 29 30 31 32 33 34 35 36 37 38 39 40 41 42 43 44 45 46 47 48 49 50
000
ASUS41 KCLE 040710
RWRCLE
OHIO REGIONAL WEATHER ROUNDUP
NATIONAL WEATHER SERVICE CLEVELAND, OH
200 AM EST SUN DEC 04 2016

NOTE: "FAIR" INDICATES FEW OR NO CLOUDS BELOW 12,000 FEET WITH NO
SIGNIFICANT WEATHER AND/OR OBSTRUCTIONS TO VISIBILITY.

OHZ001>008-015>018-024>027-034-035-043-044-040800-
   NORTHWEST OHIO

CITY           SKY/WX    TMP DP  RH WIND       PRES   REMARKS
DEFIANCE       CLOUDY    35  27  72 CALM      30.28S
FINDLAY        CLOUDY    34  25  69 CALM      30.27F
TOLEDO EXPRESS CLOUDY    34  29  82 CALM      30.27F
TOLEDO EXEC    CLOUDY    35  30  82 CALM      30.28F
LIMA           CLOUDY    33  28  81 E5        30.26F WCI  29
$$

OHZ009>014-019>023-028>033-038-089-040800-
   NORTHEAST OHIO

CITY           SKY/WX    TMP DP  RH WIND       PRES   REMARKS
CLE-HOPKINS    CLOUDY    37  26  64 SW3       30.31S
CLE-LAKEFRONT  CLOUDY    37  27  67 SW6       30.29S
CUY CO. ARPT   NOT AVBL
LORAIN-ELYRIA  CLOUDY    34  27  75 SW5       30.30S WCI  30
ASHTABULA      CLOUDY    35  30  82 SW5       30.28S
AKRON-CANTON   CLOUDY    36  23  59 NW3       30.27F
WOOSTER        CLOUDY    33  27  78 CALM      30.28F
MANSFIELD      CLOUDY    33  27  78 CALM      30.27S
YOUNGSTOWN     CLOUDY    35  27  72 W3        30.26F
$$

OHZ042-051>053-060>062-070>072-077>081-040800-
  SOUTHWEST OHIO

CITY           SKY/WX    TMP DP  RH WIND       PRES   REMARKS
CINC-COVINGTON CLOUDY    36  31  82 CALM      30.25S
CINC-LUNKEN    CLOUDY    37  32  82 CALM      30.28F
HAMILTON       PTCLDY    32  29  88 CALM      30.27F
DAYTON         CLOUDY    32  27  81 SE5       30.26F WCI  27
WRIGHT-PAT AFB CLOUDY    33  28  82 CALM      30.25F
DAYTON GENERAL PTCLDY    35  26  69 SE6       30.24F
WILMINGTON     PTCLDY    31  27  85 E3        30.24F
$$

OHZ036-037-039>041-045>050-054>059-063>069-073>076-082>088-040800-
  CENTRAL AND SOUTHEAST OHIO

CITY           SKY/WX    TMP DP  RH WIND       PRES   REMARKS
COLUMBUS       CLOUDY    36  29  75 E5        30.28F
OSU AIRPORT    CLOUDY    34  29  82 E3        30.27F
BOLTON FIELD   CLOUDY    31  28  89 CALM      30.27F
RICKENBACK AFB CLOUDY    33  29  84 CALM      30.28S
NEWARK         CLOUDY    35  27  72 CALM      30.27F
MARION         CLOUDY    33  27  78 CALM      30.28F
LANCASTER      CLOUDY    35  32  88 CALM      30.28F
ZANESVILLE     CLOUDY    35  29  78 CALM      30.28F
NEW PHILLY     CLOUDY    34  30  85 CALM      30.30S
$$




USA.gov is the U.S. government's official web portal to all federal, state and local government web resources and services.